Location: ??
(35.4032°N, 139.3073°E)
Time: 01:52:42
(UTC+00:00)

COSMOS 2428 - Pass Details

Date: 13 April 2024
Orbit: 845 x 855 km, 70.9° (Epoch: 25 May)

Event Time Altitude Azimuth Distance (km) Brightness Sun altitude
Exits shadow 16:52:58 38° 30° (NNE) 1,273 3.9 -35.7°
Drops below altitude 10° 16:56:24 10° 24° (NNE) 2,479 5.8 -35.3°
Sets 16:58:51 0° 23° (NNE) 3,416 6.8 -34.9°
